Probability
13 13 13 13 13 12 11 11 8 5 5 7 8 7 8 7 5 4 4 3 1 0 0 0 0 0 0 0 0 0 0 0 0 0 0 0 0 0
13 13 13 13 13 13 13 11 8 6 6 8 8 7 7 7 5 4 4 3 1 0 0 0 0 0 0 0 0 0 0 0 0 0 0 0 0 0
13 13 13 12 12 13 13 12 10 8 6 6 6 6 8 7 4 3 3 3 2 1 0 0 0 0 0 0 0 0 0 0 0 0 0 0 0 0
12 12 12 11 11 11 12 12 11 9 7 6 4 6 10 9 4 2 1 1 1 1 0 0 0 0 0 0 0 0 0 0 0 0 0 0 0 0
10 10 10 10 10 10 11 11 10 9 8 6 5 7 11 10 6 3 1 1 1 1 0 0 0 0 0 0 0 0 0 0 0 0 0 0 0 0
6 7 8 9 9 9 9 10 10 9 8 7 6 8 11 11 7 4 2 2 2 2 1 1 1 1 0 0 0 0 0 0 0 0 0 0 0 0
2 5 7 8 7 6 6 8 10 10 9 7 7 9 11 11 7 3 1 1 2 2 2 2 2 2 1 1 1 0 0 0 0 0 0 0 0 0
3 5 6 6 5 4 4 5 7 8 8 8 8 9 11 11 8 3 1 0 1 2 2 2 3 3 3 2 2 1 0 0 0 0 0 0 0 0
7 7 7 6 5 4 3 2 3 4 6 7 8 9 11 12 10 7 3 1 2 2 2 2 1 2 2 2 2 1 0 0 0 0 0 0 0 0
8 8 7 5 3 3 3 2 2 2 3 4 6 8 10 10 10 9 7 4 3 4 4 2 1 1 1 1 1 0 0 0 0 0 0 0 0 0
8 7 6 4 3 3 3 3 3 2 2 2 4 6 8 7 6 8 9 8 5 5 6 4 1 0 0 0 0 0 0 0 0 0 0 0 0 0
7 6 4 3 2 2 3 3 3 3 2 3 5 7 8 7 6 7 10 11 9 7 7 5 2 1 1 1 1 0 0 0 0 0 0 0 0 0
8 7 5 3 1 1 2 3 3 3 3 5 8 10 10 10 10 10 12 14 11 8 7 6 3 2 2 2 2 1 0 0 1 1 1 0 0 0
8 7 5 3 1 0 1 2 1 2 3 6 9 10 11 11 12 13 13 12 10 8 7 7 5 4 4 4 3 2 1 1 2 2 2 1 1 1
6 5 4 3 1 0 0 0 1 2 3 5 8 9 9 10 11 11 10 9 8 7 6 7 7 7 7 6 5 4 3 3 3 3 2 1 2 2
3 3 3 2 2 2 1 1 1 3 3 4 6 7 8 9 10 9 8 7 6 5 5 7 9 10 9 8 7 5 4 4 4 3 2 2 2 2
3 3 3 2 3 4 3 2 3 3 3 4 5 6 6 7 8 7 7 5 4 3 3 5 8 9 8 7 6 4 2 2 4 5 3 3 2 2
3 3 3 3 3 4 3 3 3 2 2 3 5 6 5 5 5 4 4 4 3 2 2 3 4 5 4 4 3 2 1 2 4 5 4 4 3 2
2 2 2 2 2 2 2 2 1 1 2 3 5 6 6 4 3 3 2 3 3 2 1 1 1 2 1 1 1 1 1 2 3 4 4 3 2 1
1 1 1 1 1 1 1 1 0 1 2 3 4 6 6 5 4 3 3 3 3 1 0 0 1 1 0 0 0 0 0 1 2 1 1 1 0 0
0 0 0 0 0 0 0 0 0 0 1 2 3 5 6 6 4 3 3 3 2 1 0 0 0 0 0 0 0 0 0 0 0 0 0 0 0 0
0 0 0 0 0 0 0 0 0 0 0 2 3 5 6 5 3 1 1 3 2 1 0 0 0 0 0 0 0 0 0 0 0 0 0 0 0 0
0 0 0 0 0 0 0 0 0 0 1 3 5 6 6 4 2 0 1 2 2 1 0 0 0 0 0 0 0 0 0 0 0 0 0 0 0 0
Wind_Speed
1 1 1 1 1 0 0 1 1 2 1 2 1 2 2 3 7 5 5 9 10 9 8 7 6 5 4 4 3 3 3 3 4 4 4 4 5 5
0 0 0 1 1 1 0 0 0 1 1 1 1 2 2 2 6 4 5 10 10 9 9 8 7 6 5 4 4 4 3 3 3 3 4 4 5 5
0 0 0 0 1 1 1 0 0 0 1 1 0 1 2 2 3 3 3 6 6 9 9 9 8 7 6 5 5 5 4 4 4 4 4 4 4 5
0 0 0 0 0 1 1 1 1 1 2 2 1 1 2 3 3 3 3 4 4 9 11 10 9 8 8 7 6 6 5 5 5 4 4 4 4 5
1 0 1 0 1 1 1 1 1 1 1 1 2 1 1 2 3 2 3 2 4 6 10 10 10 9 9 8 8 7 6 6 6 5 5 5 5 5
1 1 1 0 1 1 1 1 1 1 1 1 2 2 2 2 2 2 2 2 2 3 5 6 9 10 10 9 9 8 8 7 7 6 6 5 5 5
2 1 1 1 1 1 1 1 1 1 1 1 1 1 1 1 2 2 2 1 2 2 2 3 4 5 6 8 9 10 9 9 8 7 7 6 6 6
2 2 2 2 2 2 2 2 2 2 2 2 2 2 2 2 2 2 1 1 2 1 1 3 3 4 4 5 8 11 11 10 9 9 8 8 7 7
2 2 2 1 1 1 2 3 3 4 4 3 3 3 3 2 2 2 2 2 3 2 2 3 2 3 3 4 9 11 10 10 10 9 9 8 8 7
2 2 1 1 1 1 2 2 2 2 3 3 3 3 3 1 2 3 3 3 3 3 3 3 3 3 2 2 7 9 10 10 9 9 9 8 8 7
2 1 1 0 1 1 2 2 2 2 2 2 2 3 3 3 3 2 3 3 3 3 2 2 2 2 2 2 4 8 9 9 9 9 9 8 8 7
1 1 1 0 0 1 2 2 3 3 2 2 2 3 3 4 5 5 4 3 3 2 2 2 2 1 1 1 2 3 4 6 8 8 8 8 7 4
2 1 0 1 2 3 3 3 4 3 2 2 2 3 3 3 3 4 4 3 3 3 2 1 2 2 2 1 1 3 3 3 4 4 6 7 7 6
2 2 2 2 3 4 3 4 4 4 2 2 2 2 2 2 2 3 3 3 3 3 3 2 2 2 2 2 2 1 2 3 3 3 4 5 6 7
3 4 4 4 4 3 4 4 3 2 2 3 3 2 2 2 1 1 2 2 2 3 3 3 3 2 2 2 2 2 2 2 3 3 3 3 3 3
2 3 3 4 4 4 2 2 2 2 3 3 2 2 2 1 1 1 2 2 2 3 3 3 3 3 3 3 2 2 2 2 2 3 3 2 2 3
2 2 2 2 2 2 1 1 1 1 2 2 2 2 2 2 2 1 1 1 2 2 2 2 2 1 2 1 2 2 1 1 1 2 2 1 2 3
1 2 2 2 2 2 2 2 1 1 1 1 2 2 2 2 2 1 1 2 2 2 2 2 1 1 1 1 2 3 2 2 2 2 2 2 2 2
1 2 2 2 2 2 2 2 2 2 1 2 2 2 2 2 2 2 1 2 2 2 2 2 2 2 3 3 2 3 3 3 2 2 2 2 3 2
2 2 2 2 2 2 2 2 2 2 2 2 2 1 1 1 1 2 2 2 2 2 2 2 2 2 3 3 2 2 3 3 2 2 2 1 1 1
2 2 2 2 2 2 2 2 2 2 2 2 1 2 1 1 2 2 2 3 3 3 3 3 3 4 2 1 1 2 2 3 2 2 2 1 2 2
2 2 2 2 2 2 2 2 2 2 2 2 2 2 1 2 2 3 3 3 3 3 3 2 2 2 2 2 2 2 2 2 2 3 4 4 3 3
1 2 2 2 2 2 2 2 2 2 2 2 2 2 2 2 3 3 3 3 3 3 2 2 2 1 2 2 2 2 2 2 2 2 3 5 6 7
Wind_Direction
333 19 17 332 349 330 290 162 171 172 183 184 174 172 159 140 154 168 163 172 179 183 187 192 198 201 201 201 201 199 200 204 207 210 212 215 218 219
239 37 68 332 345 342 323 308 197 176 200 179 159 165 157 163 163 176 174 171 183 188 190 192 196 201 205 205 206 205 204 206 211 215 220 223 221 219
285 164 188 261 349 338 320 280 259 195 189 251 158 173 167 162 161 189 181 173 185 192 193 195 198 201 205 209 209 208 207 209 217 223 227 229 225 223
266 298 307 299 354 320 313 276 250 215 178 206 217 193 187 187 178 198 203 192 190 192 194 197 199 202 204 207 209 211 212 214 219 225 230 232 229 227
251 253 262 283 309 303 293 279 268 270 200 204 228 214 192 195 181 209 221 208 218 191 192 199 201 204 207 208 211 213 215 217 221 226 231 232 231 231
259 251 249 237 266 262 263 272 270 272 237 229 228 209 196 201 183 202 230 226 229 213 195 195 201 207 210 211 213 214 215 218 221 224 228 230 231 233
267 246 227 212 209 250 266 282 282 265 248 245 245 247 222 199 207 219 222 232 245 211 186 204 196 204 210 216 217 216 212 212 215 217 220 224 227 226
273 268 247 216 206 208 255 279 264 255 261 251 250 248 246 237 222 232 223 230 255 223 204 231 203 204 209 208 203 204 207 209 211 214 217 218 218 219
279 270 270 276 221 228 240 251 260 257 242 241 252 257 252 245 238 246 244 240 242 232 219 249 235 227 216 205 189 196 203 208 212 216 217 216 215 217
296 293 288 310 339 349 304 279 264 268 252 235 239 255 258 263 244 245 245 252 251 239 208 233 241 240 224 185 195 197 203 211 214 214 213 215 217 221
296 324 318 122 118 301 284 282 285 294 296 275 247 252 257 247 233 239 243 244 256 254 212 215 235 238 229 208 202 199 202 207 210 211 213 215 218 220
292 306 14 347 222 288 270 268 276 287 305 316 301 269 247 240 229 219 229 238 252 263 230 212 228 224 257 225 180 191 207 212 210 212 212 213 212 208
288 279 286 201 270 281 265 251 254 271 276 274 268 259 247 233 218 215 224 232 242 255 252 223 236 231 231 241 210 192 191 189 190 209 212 211 206 196
314 334 345 319 292 279 266 262 269 277 264 266 267 264 258 249 231 218 221 232 236 242 255 239 238 231 235 253 252 194 191 191 181 189 197 200 209 207
322 347 339 325 308 282 262 257 247 245 247 251 255 263 267 265 248 219 220 231 238 251 254 241 229 233 227 236 247 231 214 205 186 183 189 186 196 198
297 317 305 290 287 278 274 257 235 233 235 246 255 269 278 273 256 245 237 232 248 263 264 253 229 222 236 243 244 255 238 210 199 188 182 188 191 197
299 281 292 292 288 287 283 263 251 251 246 248 256 265 271 269 259 249 247 247 250 255 257 254 229 191 189 233 239 242 245 241 222 206 190 205 214 201
295 270 274 282 288 289 292 292 287 276 265 259 256 260 262 269 275 266 241 235 249 260 260 251 227 217 227 281 255 236 232 236 235 225 207 208 242 238
250 268 276 282 285 287 296 299 298 296 289 281 275 274 275 266 262 264 262 250 251 259 262 260 239 220 230 244 255 241 227 230 236 237 235 225 234 237
255 272 280 281 289 301 304 297 290 290 287 288 286 282 280 285 277 272 267 260 254 259 266 259 246 238 237 239 234 260 241 226 224 227 230 245 254 248
256 260 274 283 292 297 294 285 287 283 272 271 275 276 272 275 275 265 259 263 261 257 257 251 236 236 233 207 213 247 263 240 222 202 205 215 245 247
264 275 278 275 278 282 284 285 281 276 265 259 264 275 275 268 266 267 265 261 254 256 262 262 235 218 225 226 236 238 251 261 247 247 244 227 219 224
278 288 293 284 275 270 274 279 289 290 278 272 268 264 265 272 272 268 266 270 267 258 257 258 242 228 231 223 228 239 240 231 232 243 270 262 243 242